[[{"header":{"parameterUnit":"m.s-1","parameterCategory":1,"la1":30.2991,"la2":30.254,"lo1":-89.0895,"lo2":-89.0444,"dy":0.0017,"dx":0.0017,"nx":28,"ny":28,"refTime":"2023-06-25T21:00:00:Z","depth":0,"parameterNumber":2,"parameterNumberName":"U-component_of_WINDS"},"data":[0,0,0,0,0,0,0,0,0,0,0,0,0,0,0,0,0,0,0,0,0,0,0,0,0,0,0,0,0,0,0,0,0,0,0,0,0,0,0,0,0,0,0,0,0,0,0,0,0,0,0,0,0,0,0,0,0,0,2.3467,2.3467,0,2.348,2.348,2.348,2.3469,2.3469,2.3468,2.3468,2.3484,2.3485,2.3486,0,0,0,0,0,0,0,0,0,0,0,0,0,2.3437,2.3438,2.3467,2.3467,2.3467,2.348,2.348,2.348,2.3469,2.3469,2.3468,2.3468,2.3484,2.3485,2.3486,0,0,0,0,0,0,0,0,0,0,0,0,0,2.345,2.3438,2.3467,2.3463,2.3463,2.348,2.348,2.348,2.3469,2.3469,2.3468,2.3467,2.3483,2.3485,2.3486,2.3508,0,0,2.349,2.349,0,0,0,0,0,0,0,0,2.345,2.3451,2.3464,2.3463,2.3463,2.3472,2.3476,2.349,2.347,2.3467,2.3468,2.3467,2.3481,2.3482,2.3486,2.3509,2.3509,2.349,2.3491,2.3491,2.3492,0,0,0,0,0,0,0,2.3449,2.3451,2.3472,2.3464,2.3464,2.3463,2.3464,2.3478,2.3478,2.3467,2.3466,2.3468,2.3481,2.3485,2.3487,2.351,2.349,2.3491,2.3492,2.3492,2.3555,2.3555,0,0,0,0,0,0,2.3448,2.345,2.3472,2.3473,2.3455,2.3464,2.3465,2.347,2.3478,2.3478,2.3469,2.3467,2.3483,2.3485,2.3487,2.3515,2.3491,2.3492,2.3493,2.3554,2.3555,2.3556,0,0,0,0,0,0,2.3447,2.345,2.3471,2.3461,2.3464,2.3465,2.3471,2.3471,2.3475,2.3479,2.3479,2.3473,2.3483,2.3485,2.3503,2.3516,2.3493,2.3494,2.3553,2.3554,2.3555,2.3571,0,0,0,0,0,0,2.3446,2.345,2.3456,2.3461,2.3464,2.3486,2.3472,2.3471,2.3477,2.3476,2.3483,2.3483,2.3482,2.3502,2.3505,2.3517,2.3495,2.3552,2.3553,2.3555,2.3569,2.3572,2.3575,0,0,0,0,0,2.3445,2.346,2.3457,2.3459,2.3473,2.3486,2.3488,2.3486,2.3478,2.3486,2.3489,2.3483,2.3514,2.3503,2.3507,2.352,2.3551,2.3553,2.3555,2.3568,2.3572,2.3575,0,0,0,0,0,0,2.3456,2.346,2.3457,2.3473,2.348,2.3484,2.3494,2.349,2.3499,2.3497,2.3496,2.3497,2.3517,2.352,2.3508,2.3544,2.3531,2.3534,2.354,2.3544,2.3547,2.3546,2.3496,0,0,0,0,0,2.3461,2.347,2.3474,2.3488,2.3492,2.3493,2.3498,2.3496,2.3503,2.3506,2.351,2.3517,2.3529,2.3537,2.3548,2.357,2.3573,2.3581,2.3584,2.3587,2.3589,2.3604,2.3608,2.3562,2.3562,2.3562,0,0,2.347,2.3473,2.3479,2.3491,2.3495,2.3507,2.3495,2.3506,2.3516,2.3508,2.3525,2.3529,2.3538,2.3559,2.3568,2.3562,2.3603,2.3589,2.3591,2.3592,2.3606,2.3611,2.3615,2.3564,2.3563,2.3563,0,0,2.3492,2.3495,2.3509,2.3514,2.3521,2.3522,2.3526,2.3532,2.3534,2.3552,2.3547,2.3559,2.3578,2.3586,2.3592,2.3622,2.3617,2.3626,2.3641,2.3656,2.3659,2.3663,2.3675,2.3679,2.3628,2.3628,2.3628,0,2.3503,2.3518,2.3516,2.3529,2.3535,2.353,2.3545,2.355,2.3561,2.3567,2.356,2.3586,2.3592,2.3616,2.3623,2.3628,2.3634,2.3624,2.3659,2.3662,2.3665,2.3677,2.3681,2.3629,2.3629,2.3629,2.3629,0,2.3532,2.3543,2.3554,2.3564,2.3572,2.3586,2.3588,2.3596,2.3595,2.3598,2.3618,2.3625,2.3638,2.3644,2.3642,2.3669,2.3665,2.3659,2.3646,2.3671,2.3682,2.3686,2.363,2.363,2.363,2.363,0,0,2.3559,2.3571,2.3574,2.358,2.359,2.3599,2.3615,2.3628,2.3636,2.3645,2.3659,2.3678,2.3673,2.368,2.368,2.3693,2.3719,2.3686,2.3686,2.3692,2.3751,2.3755,2.376,2.3717,2.3717,2.3718,2.3751,0,2.3582,2.3607,2.3608,2.3631,2.3643,2.364,2.3654,2.3663,2.3667,2.3679,2.3684,2.3698,2.3689,2.3694,2.3707,2.3713,2.3731,2.3711,2.3731,2.3732,2.3729,2.3766,2.377,2.38,2.3755,2.3755,2.3756,0,2.3612,2.3622,2.3647,2.3658,2.3663,2.3675,2.3688,2.37,2.3711,2.3713,2.3723,2.3722,2.3741,2.3729,2.3756,2.3742,2.3751,2.3756,2.3757,2.3759,2.3745,2.3769,2.3809,2.3814,2.3762,2.3762,2.3761,0,2.363,2.3651,2.3669,2.3674,2.3686,2.3696,2.3701,2.3712,2.3721,2.3734,2.374,2.3755,2.3763,2.3776,2.378,2.3771,2.3808,2.3796,2.3812,2.3812,2.3818,2.3818,2.3861,2.3825,2.3825,2.3824,2.3824,0,2.3656,2.3672,2.3677,2.3688,2.3707,2.3709,2.3728,2.3734,2.3744,2.3758,2.3757,2.377,2.3775,2.3791,2.3795,2.3817,2.3821,2.3825,2.3826,2.3825,2.3824,2.383,2.3828,2.3826,2.3825,2.3825,2.3825,0,2.3679,2.3683,2.3703,2.3714,2.3717,2.3731,2.3741,2.3754,2.3759,2.3777,2.3781,2.379,2.3808,2.3814,2.3836,2.3839,2.3866,2.3865,2.3861,2.3862,2.3878,2.3876,2.3926,2.3933,2.3892,2.3892,2.3892,0,2.3695,2.3707,2.372,2.3729,2.3735,2.3749,2.3759,2.3763,2.3773,2.3789,2.38,2.3818,2.3832,2.3863,2.3872,2.389,2.3889,2.3906,2.3892,2.3892,2.389,2.389,2.3892,2.3908,2.3908,2.3909,2.3909,0,2.3723,2.3725,2.3738,2.3753,2.3764,2.3776,2.3788,2.3796,2.3802,2.3814,2.3833,2.3844,2.3868,2.3887,2.3906,2.3914,2.3913,2.3914,2.3918,2.3917,2.3915,2.3917,2.3869,2.3912,2.3912,2.3911,2.3911,2.3911,2.3743,2.3754,2.3766,2.3781,2.3791,2.3803,2.3815,2.3823,2.3838,2.3857,2.3859,2.388,2.3895,2.392,2.393,2.3948,2.3943,2.395,2.3952,2.3953,2.3955,2.3913,2.3951,2.3951,2.3951,2.3951,2.3951,0,2.3771,2.3779,2.3794,2.381,2.3824,2.3822,2.3836,2.3848,2.3865,2.3879,2.3894,2.3917,2.3936,2.3948,2.3969,2.3981,2.3981,2.3986,2.3985,2.3987,2.3957,2.3951,2.3985,2.3985,2.3985,2.3985,2.3985,2.3985,2.3787,2.3807,2.3812,2.3838,2.3847,2.3866,2.3875,2.3887,2.3898,2.3923,2.3939,2.3947,2.3961,2.3983,2.4002,2.4005,2.4013,2.4018,2.4021,2.3993,2.3989,2.3986,2.398,2.402,2.402,2.405,2.405,2.405]},{"header":{"parameterUnit":"m.s-1","parameterCategory":1,"la1":30.2991,"la2":30.254,"lo1":-89.0895,"lo2":-89.0444,"dy":0.0017,"dx":0.0017,"nx":28,"ny":28,"refTime":"2023-06-25T21:00:00:Z","depth":0,"parameterNumber":3,"parameterNumberName":"V-component_of_WINDS"},"data":[0,0,0,0,0,0,0,0,0,0,0,0,0,0,0,0,0,0,0,0,0,0,0,0,0,0,0,0,0,0,0,0,0,0,0,0,0,0,0,0,0,0,0,0,0,0,0,0,0,0,0,0,0,0,0,0,0,0,2.1879,2.188,0,2.2035,2.2037,2.2039,2.2061,2.206,2.2059,2.2057,2.2215,2.2221,2.2226,0,0,0,0,0,0,0,0,0,0,0,0,0,2.1595,2.16,2.1878,2.188,2.1882,2.2035,2.2037,2.2039,2.2062,2.206,2.2058,2.2057,2.2214,2.222,2.2227,0,0,0,0,0,0,0,0,0,0,0,0,0,2.1731,2.1602,2.1878,2.1912,2.1917,2.2034,2.2037,2.204,2.2062,2.206,2.2058,2.2056,2.2211,2.2219,2.2228,2.2322,0,0,2.2253,2.2257,0,0,0,0,0,0,0,0,2.1724,2.1742,2.1905,2.191,2.1915,2.2027,2.1995,2.2134,2.2063,2.2007,2.2057,2.2055,2.2154,2.2167,2.2201,2.2329,2.2336,2.2254,2.2259,2.2262,2.2265,0,0,0,0,0,0,0,2.1714,2.1735,2.194,2.1907,2.1914,2.1918,2.1935,2.2021,2.209,2.2011,2.2014,2.2032,2.2156,2.2193,2.2205,2.2338,2.2254,2.2261,2.2266,2.2269,2.2547,2.255,0,0,0,0,0,0,2.1699,2.1727,2.1935,2.1945,2.1812,2.1925,2.1944,2.1993,2.209,2.2102,2.2034,2.2032,2.218,2.2195,2.221,2.2325,2.2262,2.227,2.2275,2.2545,2.2548,2.2551,0,0,0,0,0,0,2.1693,2.1717,2.1929,2.1837,2.1864,2.1932,2.1987,2.1997,2.2034,2.2106,2.2118,2.2058,2.2179,2.2199,2.2293,2.2331,2.2274,2.2281,2.2542,2.2546,2.2549,2.2555,0,0,0,0,0,0,2.1685,2.1715,2.1753,2.1837,2.1869,2.201,2.1989,2.2002,2.2048,2.2048,2.2133,2.2145,2.2179,2.2281,2.2301,2.2341,2.2288,2.2539,2.2544,2.2548,2.2552,2.2558,2.2564,0,0,0,0,0,2.1674,2.1748,2.1754,2.1779,2.1917,2.2013,2.2031,2.2069,2.2051,2.2089,2.2135,2.2142,2.2323,2.229,2.2314,2.2356,2.2537,2.2542,2.2548,2.2549,2.2557,2.2564,0,0,0,0,0,0,2.1666,2.176,2.1768,2.1872,2.1934,2.2016,2.2065,2.2076,2.2144,2.2142,2.2185,2.2204,2.2295,2.2336,2.2297,2.2451,2.2428,2.2439,2.2421,2.243,2.2436,2.2424,2.2295,0,0,0,0,0,2.1676,2.1747,2.1825,2.1909,2.194,2.1997,2.204,2.2063,2.2129,2.2156,2.2209,2.2272,2.2342,2.2388,2.2458,2.2558,2.2575,2.2598,2.2604,2.2609,2.2617,2.267,2.268,2.2568,2.2568,2.2568,0,0,2.1698,2.1758,2.18,2.1908,2.196,2.203,2.2019,2.2095,2.2147,2.2167,2.2259,2.23,2.2373,2.2469,2.2515,2.2505,2.2652,2.2616,2.2619,2.2625,2.2677,2.2687,2.2696,2.2572,2.2571,2.2571,0,0,2.1774,2.1827,2.1902,2.1953,2.203,2.2067,2.2085,2.2165,2.2193,2.2286,2.2302,2.2364,2.2486,2.2536,2.2578,2.2669,2.2677,2.269,2.2722,2.2773,2.2782,2.279,2.282,2.2831,2.2698,2.2698,2.2698,0,2.1791,2.1899,2.1939,2.2013,2.2059,2.2081,2.2155,2.2202,2.2298,2.2328,2.2317,2.2468,2.2519,2.2626,2.2648,2.2682,2.2702,2.2681,2.2778,2.2786,2.2794,2.2823,2.2835,2.2699,2.2699,2.2699,2.2699,0,2.1915,2.1989,2.204,2.2132,2.2183,2.2258,2.2306,2.2354,2.2372,2.241,2.2502,2.2564,2.2645,2.2672,2.2691,2.2781,2.2773,2.2769,2.2747,2.2805,2.2833,2.2845,2.2701,2.27,2.27,2.27,0,0,2.1991,2.2102,2.212,2.216,2.2246,2.2303,2.2377,2.2456,2.2495,2.256,2.2621,2.2722,2.2718,2.2765,2.279,2.2835,2.29,2.2825,2.2827,2.2835,2.3,2.3001,2.3014,2.2906,2.2908,2.291,2.2993,0,2.2075,2.2209,2.2245,2.2357,2.2425,2.2445,2.2509,2.2567,2.2603,2.2665,2.2704,2.2775,2.2766,2.2793,2.2839,2.2882,2.2933,2.2877,2.2962,2.2964,2.2942,2.3029,2.3032,2.3107,2.3005,2.3007,2.3008,0,2.2192,2.2258,2.2377,2.2451,2.2481,2.2538,2.2612,2.2671,2.2736,2.276,2.2811,2.2831,2.2906,2.288,2.2983,2.2944,2.298,2.3006,2.301,2.3019,2.2989,2.3039,2.3133,2.3143,2.3026,2.3025,2.3024,0,2.2233,2.2352,2.2438,2.2472,2.2562,2.2601,2.2639,2.2703,2.2747,2.2811,2.284,2.2912,2.2951,2.3005,2.3043,2.3021,2.3142,2.312,2.3161,2.316,2.3185,2.3183,2.3285,2.3211,2.3211,2.321,2.321,0,2.2322,2.2394,2.2457,2.251,2.2589,2.2629,2.2706,2.2746,2.2801,2.2861,2.2882,2.2937,2.2984,2.3044,2.3074,2.3153,2.3171,2.319,2.3197,2.3188,2.3185,2.3212,2.3207,2.3213,2.3213,2.3212,2.3212,0,2.2381,2.2427,2.2521,2.2598,2.2618,2.2673,2.2738,2.2789,2.2825,2.2899,2.2919,2.2976,2.3048,2.3091,2.3182,2.3202,2.3288,2.3294,2.3266,2.3269,2.3307,2.3303,2.3429,2.3447,2.3362,2.3363,2.3363,0,2.2435,2.249,2.2572,2.2613,2.2653,2.2719,2.2764,2.2805,2.2851,2.2928,2.2969,2.3042,2.3103,2.3216,2.3264,2.3333,2.3339,2.3379,2.335,2.3338,2.3338,2.3333,2.3338,2.3383,2.3384,2.3385,2.3385,0,2.2524,2.2544,2.2608,2.268,2.2733,2.2792,2.285,2.2882,2.2932,2.2982,2.3056,2.3103,2.3195,2.3267,2.3339,2.3377,2.3389,2.3394,2.3407,2.3397,2.3379,2.3387,2.3278,2.3391,2.339,2.339,2.339,2.3389,2.2581,2.263,2.2695,2.2766,2.2813,2.2867,2.2917,2.296,2.3022,2.3101,2.3121,2.3197,2.3258,2.3357,2.3396,2.3456,2.3449,2.3468,2.3473,2.3477,2.3477,2.337,2.3469,2.3469,2.3469,2.3469,2.3469,0,2.267,2.2712,2.2777,2.2857,2.2912,2.2919,2.2983,2.3027,2.3095,2.3152,2.3211,2.3294,2.3363,2.3416,2.3486,2.3522,2.3529,2.3539,2.3536,2.3544,2.348,2.3461,2.3532,2.3532,2.3532,2.3532,2.3532,2.3532,2.2723,2.2805,2.2832,2.2937,2.2979,2.3055,2.309,2.3138,2.3183,2.3276,2.3333,2.3367,2.3422,2.3495,2.3558,2.3571,2.3595,2.3604,2.3618,2.3556,2.3549,2.3543,2.3525,2.3609,2.3609,2.3678,2.3679,2.3679]}]]